Date String (YYYY-MM-DD hh:mm:ss) UTC,Instrument flags,absolute air pressure of the measurement (hPa),sample flow rate (lpm),inlet stack bypass flow (lpm),air temperature of the measurement (°C),ambient temperature measured by the external sensor (°C),aerosol sample conditioner tube jacket temperature (°C),OPC LED temperature (°C),internal box temperature (°C),relative humidity of the measurement (%),span deviation,mass concentration of particles derived from Lorenz-Mie calculation of OPC scattering (μg/m³),mass concentration of particles derived from Lorenz-Mie calculation of OPC scattering (μg/m³),mass concentration of particles derived from Lorenz-Mie calculation of OPC scattering (μg/m³)
DateTimeUTC,F1_M11,P_M11,Q1_M11,Q2_M11,T1_M11,T2_M11,T3_M11,T4_M11,T5_M11,U1_M11,ZSPAN_M11,X0_M11,X2_M11,X1_M11
2023-10-23 18:00:00,SystemResetWarning,0823.1,5.00,000.00,028.7,027.4,000.0,037.1,030.5,13.9,0000.0,0012.37,0005.13,0004.06
2023-10-23 18:01:00,SystemResetWarning,0823.0,5.01,000.00,028.7,027.6,000.0,037.1,030.5,13.7,0000.0,0012.79,0005.12,0004.06
2023-10-23 18:02:00,SystemResetWarning,0823.0,5.01,000.00,028.8,027.6,000.0,037.1,030.6,13.6,0000.0,0013.83,0005.16,0004.07
2023-10-23 18:03:00,SystemResetWarning,0823.0,4.99,000.00,028.8,026.3,000.0,037.1,030.5,13.8,0000.0,0013.32,0005.09,0004.08
2023-10-23 18:04:00,SystemResetWarning,0823.0,5.02,000.00,028.7,024.7,000.0,037.0,030.3,13.6,0000.0,0013.70,0005.08,0004.08
2023-10-23 18:05:00,SystemResetWarning,0822.9,5.00,000.00,028.6,024.7,000.0,037.0,030.2,13.5,0000.0,0014.21,0005.09,0004.09
2023-10-23 18:06:00,SystemResetWarning,0822.9,4.99,000.00,028.5,025.0,000.0,037.0,030.0,13.7,0000.0,0014.03,0005.05,0004.10
2023-10-23 18:07:00,SystemResetWarning,0822.9,5.00,000.00,028.5,025.4,000.0,037.0,030.0,13.8,0000.0,0014.78,0005.02,0004.09
2023-10-23 18:08:00,SystemResetWarning,0823.0,5.01,000.00,028.5,025.8,000.0,037.0,030.1,13.8,0000.0,0015.58,0005.02,0004.08
2023-10-23 18:09:00,SystemResetWarning,0822.9,5.00,000.00,028.5,026.2,000.0,037.0,030.1,13.8,0000.0,0015.45,0005.04,0004.08
2023-10-23 18:10:00,SystemResetWarning,0822.9,5.00,000.00,028.5,026.5,000.0,037.0,030.2,13.8,0000.0,0015.26,0005.03,0004.09
2023-10-23 18:11:00,SystemResetWarning,0823.0,5.00,000.00,028.5,026.8,000.0,037.0,030.3,13.8,0000.0,0014.82,0005.03,0004.08
2023-10-23 18:12:00,SystemResetWarning,0823.1,5.00,000.00,028.6,027.0,000.0,037.0,030.3,13.9,0000.0,0014.43,0005.10,0004.08
2023-10-23 18:13:00,SystemResetWarning,0823.3,5.00,000.00,028.6,027.2,000.0,037.0,030.4,13.7,0000.0,0013.62,0005.14,0004.08
2023-10-23 18:14:00,SystemResetWarning,0823.3,4.99,000.00,028.6,027.4,000.0,037.0,030.4,13.7,0000.0,0013.74,0005.21,0004.08
2023-10-23 18:15:00,SystemResetWarning,0823.3,5.00,000.00,028.7,027.6,000.0,037.1,030.5,13.6,0000.0,0013.89,0005.24,0004.07
2023-10-23 18:16:00,SystemResetWarning,0823.1,5.00,000.00,028.7,027.5,000.0,037.1,030.6,13.6,0000.0,0014.08,0005.25,0004.06
2023-10-23 18:17:00,SystemResetWarning,0822.7,4.98,000.00,028.7,025.9,000.0,037.0,030.4,13.4,0000.0,0015.08,0005.28,0004.06
2023-10-23 18:18:00,SystemResetWarning,0822.8,5.01,000.00,028.6,024.5,000.0,036.9,030.2,13.5,0000.0,0014.26,0005.27,0004.05
2023-10-23 18:19:00,SystemResetWarning,0822.7,5.01,000.00,028.6,024.6,000.0,036.9,030.1,13.7,0000.0,0014.48,0005.27,0004.05
2023-10-23 18:20:00,SystemResetWarning,0822.8,5.00,000.00,028.5,025.0,000.0,036.9,030.0,13.9,0000.0,0015.76,0005.26,0004.04
2023-10-23 18:21:00,SystemResetWarning,0822.8,5.00,000.00,028.4,025.4,000.0,036.9,030.0,13.9,0000.0,0016.06,0005.26,0004.02
2023-10-23 18:22:00,SystemResetWarning,0822.8,5.00,000.00,028.4,025.8,000.0,036.9,030.0,13.9,0000.0,0016.22,0005.27,0004.01
2023-10-23 18:23:00,SystemResetWarning,0822.7,5.00,000.00,028.4,026.2,000.0,036.9,030.1,13.8,0000.0,0016.74,0005.23,0004.01
2023-10-23 18:24:00,SystemResetWarning,0822.7,5.00,000.00,028.5,026.5,000.0,036.9,030.2,13.8,0000.0,0016.88,0005.19,0004.00
2023-10-23 18:25:00,SystemResetWarning,0822.7,5.00,000.00,028.5,026.8,000.0,036.9,030.2,13.7,0000.0,0017.58,0005.16,0003.99
2023-10-23 18:26:00,SystemResetWarning,0822.7,4.99,000.00,028.5,027.0,000.0,037.0,030.3,13.8,0000.0,0018.03,0005.14,0004.00
2023-10-23 18:27:00,SystemResetWarning,0822.7,4.99,000.00,028.6,027.3,000.0,037.0,030.4,13.8,0000.0,0018.77,0005.17,0004.00
2023-10-23 18:28:00,SystemResetWarning,0822.7,5.00,000.00,028.6,027.4,000.0,037.0,030.5,14.0,0000.0,0018.18,0005.20,0004.01
2023-10-23 18:29:00,SystemResetWarning,0822.8,5.01,000.00,028.7,027.6,000.0,037.0,030.5,13.8,0000.0,0019.30,0005.19,0004.02
2023-10-23 18:30:00,SystemResetWarning,0822.8,4.99,000.00,028.7,026.6,000.0,037.0,030.5,13.8,0000.0,0019.80,0005.20,0004.02
2023-10-23 18:31:00,SystemResetWarning,0822.5,5.00,000.00,028.6,024.9,000.0,036.9,030.3,13.8,0000.0,0018.40,0005.20,0004.02
2023-10-23 18:32:00,SystemResetWarning,0823.0,5.01,000.00,028.5,024.6,000.0,036.9,030.1,13.7,0000.0,0018.84,0005.21,0004.03
2023-10-23 18:33:00,SystemResetWarning,0823.1,5.01,000.00,028.5,024.9,000.0,036.9,030.0,13.7,0000.0,0019.04,0005.18,0004.03
2023-10-23 18:34:00,SystemResetWarning,0822.8,5.00,000.00,028.4,025.3,000.0,036.9,029.9,13.8,0000.0,0018.49,0005.18,0004.03
2023-10-23 18:35:00,SystemResetWarning,0822.5,4.99,000.00,028.4,025.7,000.0,036.9,030.0,13.9,0000.0,0018.45,0005.16,0004.04
2023-10-23 18:36:00,SystemResetWarning,0822.4,5.00,000.00,028.4,026.1,000.0,036.9,030.0,14.0,0000.0,0017.76,0005.20,0004.05
2023-10-23 18:37:00,SystemResetWarning,0822.5,5.00,000.00,028.4,026.4,000.0,036.9,030.1,13.9,0000.0,0016.71,0005.19,0004.04
2023-10-23 18:38:00,SystemResetWarning,0822.4,5.01,000.00,028.4,026.7,000.0,036.9,030.2,13.8,0000.0,0015.54,0005.16,0004.03
2023-10-23 18:39:00,SystemResetWarning,0822.4,4.99,000.00,028.5,027.0,000.0,036.9,030.3,13.9,0000.0,0015.65,0005.10,0004.02
2023-10-23 18:40:00,SystemResetWarning,0822.4,4.99,000.00,028.5,027.2,000.0,036.9,030.3,13.8,0000.0,0016.29,0005.11,0004.02
2023-10-23 18:41:00,SystemResetWarning,0822.5,5.01,000.00,028.6,027.4,000.0,036.9,030.4,13.7,0000.0,0016.08,0005.10,0004.03
2023-10-23 18:42:00,SystemResetWarning,0822.4,5.01,000.00,028.6,027.4,000.0,037.0,030.4,13.6,0000.0,0015.71,0005.16,0004.04
2023-10-23 18:43:00,SystemResetWarning,0822.4,4.98,000.00,028.6,026.1,000.0,036.9,030.3,13.6,0000.0,0015.51,0005.16,0004.04
2023-10-23 18:44:00,SystemResetWarning,0822.4,5.01,000.00,028.5,024.5,000.0,036.8,030.1,13.6,0000.0,0015.38,0005.16,0004.05
2023-10-23 18:45:00,SystemResetWarning,0822.4,5.01,000.00,028.5,024.5,000.0,036.8,030.0,13.7,0000.0,0015.63,0005.18,0004.07
2023-10-23 18:46:00,SystemResetWarning,0822.4,5.00,000.00,028.4,024.8,000.0,036.8,029.9,13.8,0000.0,0015.27,0005.19,0004.08
2023-10-23 18:47:00,SystemResetWarning,0822.4,5.00,000.00,028.3,025.2,000.0,036.8,029.9,13.7,0000.0,0015.62,0005.15,0004.09
2023-10-23 18:48:00,SystemResetWarning,0822.3,5.01,000.00,028.3,025.7,000.0,036.8,029.9,13.7,0000.0,0017.21,0005.15,0004.10
2023-10-23 18:49:00,SystemResetWarning,0822.4,4.99,000.00,028.3,026.0,000.0,036.8,030.0,13.7,0000.0,0018.30,0005.13,0004.11
2023-10-23 18:50:00,SystemResetWarning,0822.4,5.00,000.00,028.4,026.4,000.0,036.9,030.1,13.6,0000.0,0018.18,0005.14,0004.12
2023-10-23 18:51:00,SystemResetWarning,0822.4,5.01,000.00,028.4,026.7,000.0,036.9,030.1,13.6,0000.0,0016.92,0005.13,0004.13
2023-10-23 18:52:00,SystemResetWarning,0822.4,5.01,000.00,028.4,027.0,000.0,036.9,030.2,13.5,0000.0,0015.27,0005.15,0004.13
2023-10-23 18:53:00,SystemResetWarning,0822.3,4.99,000.00,028.5,027.2,000.0,036.9,030.3,13.3,0000.0,0015.10,0005.09,0004.13
2023-10-23 18:54:00,SystemResetWarning,0822.4,4.98,000.00,028.5,027.3,000.0,036.9,030.3,13.2,0000.0,0014.59,0005.11,0004.14
2023-10-23 18:55:00,SystemResetWarning,0822.3,5.01,000.00,028.6,027.5,000.0,036.9,030.4,13.1,0000.0,0014.03,0005.13,0004.14
2023-10-23 18:56:00,SystemResetWarning,0822.3,5.01,000.00,028.6,027.4,000.0,036.9,030.5,13.1,0000.0,0013.77,0005.14,0004.14
2023-10-23 18:57:00,SystemResetWarning,0822.2,4.99,000.00,028.6,025.9,000.0,036.9,030.3,13.3,0000.0,0013.82,0005.14,0004.14
2023-10-23 18:58:00,SystemResetWarning,0822.2,5.01,000.00,028.5,024.5,000.0,036.8,030.1,13.9,0000.0,0013.82,0005.13,0004.14
2023-10-23 18:59:00,SystemResetWarning,0822.2,5.01,000.00,028.4,024.6,000.0,036.8,030.0,14.2,0000.0,0012.54,0005.16,0004.14
